Regional Weather Roundup
Issued by NWS State College, PA

Home | Current Version | Previous Version | Graphics & Text | Print | Product List | Glossary Off
Versions: 1 2 3 4 5 6 7 8 9 10 11 12 13 14 15 16 17 18 19 20 21 22 23 24 25 26 27 28 29 30 31 32 33 34 35 36 37 38 39 40 41 42 43 44 45 46 47 48 49 50

000
ASUS41 KCTP 120903
RWRCTP

REGIONAL WEATHER ROUNDUP
NATIONAL WEATHER SERVICE STATE COLLEGE PA
400 AM EST FRI FEB 12 2016

Note: "fair" indicates few or no clouds below 12,000 feet with no
significant weather and/or obstructions to visibility.

* = STATION THAT DOES NOT REPORT PRECIPITATION /E.G. RAIN...SNOW...ETC/
    THUNDER OR FOG.

PAZ002>004-007>009-013>016-020>023-029>032-121000-
WESTERN PENNSYLVANIA

CITY           SKY/WX    TMP DP  RH WIND       PRES   REMARKS
ERIE           LGT SNOW  14   6  70 SW13      30.14F WCI   0
MEADVILLE      PTCLDY     5   0  79 S6        30.11F WCI  -6
FRANKLIN*      CLEAR      3  -4  72 SW6       30.13F WCI  -8
NEW CASTLE     FAIR       1  -2  87 S5        30.18F WCI  -9
BEAVER COUNTY  NOT AVBL
BUTLER*        CLOUDY     3   0  85 S3        30.19F
PITTSBURGH INT CLOUDY     5  -2  72 CALM      30.17F
PITTSBURGH     CLEAR      8   0  69 S8        30.17F WCI  -4
INDIANA*       CLEAR      0  -4  85 CALM      30.20F
LATROBE        CLEAR      3   0  85 CALM      30.20F
WASHINGTON CO* CLOUDY     0  -6  78 CALM      30.18F
$$

PAZ004>006-010>012-017>019-024>028-033>037-041-042-045-046-049>053-121000-
CENTRAL PENNSYLVANIA

CITY           SKY/WX    TMP DP  RH WIND       PRES   REMARKS
BRADFORD       CLEAR      3  -2  79 SW5       30.04F WCI  -6
DUBOIS         CLEAR      4  -1  80 S3        30.10F
CLEARFIELD     MOCLDY     5   0  79 SW6       30.15F WCI  -6
JOHNSTOWN      CLOUDY     3  -5  69 S6        30.07F WCI  -8
ALTOONA        CLEAR      6  -1  73 SW8       30.17F WCI  -7
STATE COLLEGE  CLEAR      7   2  80 SW5       30.18F WCI  -1
WILLIAMSPORT   MOCLDY    14   2  58 W7        30.23S WCI   4
SELINSGROVE    CLEAR      4   0  83 CALM      30.26S
FT INDIANTOWN  CLEAR     14   0  54 W5        30.25S WCI   6
CAPITAL CITY   CLEAR     13   0  56 W5        30.27F WCI   5
HARRISBURG     PTCLDY    16   3  56 NW7       30.27F WCI   6
YORK           CLEAR     -5  -7  91 CALM      30.27S
$$

PAZ038>040-043-044-047-048-054-055-060>062-067>071-121000-
EASTERN PENNSYLVANIA

CITY           SKY/WX    TMP DP  RH WIND       PRES   REMARKS
SCRANTON       CLEAR      9  -3  58 SW3       30.17F
MOUNT POCONO   CLEAR      5  -5  63 W7        30.06S WCI  -7
ALLENTOWN      CLEAR     11  -1  58 SW8       30.24S WCI  -1
QUAKERTOWN*    SUNNY     14   0  52 NW3       30.24S
READING        CLEAR     12  -2  53 NW6       30.25F WCI   3
LANCASTER      CLEAR      7  -1  70 W7        30.27S WCI  -5
COATESVILLE    MOSUNNY    9   0  66 NW9       30.25F WCI  -5
POTTSTOWN      CLEAR     11   0  61 NW3       30.27S
BLUE BELL        N/A     14   1  57 CALM      30.26S
DOYLESTOWN     CLEAR     12  -2  53 W5        30.24S WCI   4
WILLOW GROVE   NOT AVBL
NORTH PHILA    PTCLDY    17   0  47 W7        30.30R WCI   8
PHILADELPHIA   CLEAR     18   0  45 W9        30.30S WCI   7
$$



USA.gov is the U.S. government's official web portal to all federal, state and local government web resources and services.